Vorticity
5 18 7 7 9 8 9 7 13 7 11 7 11 8 7 7 10 13 9 8 11 11 8 7 7 8 7 7 7 7 7 7 7 7 8 7 6 7
14 4 9 8 9 10 10 10 8 9 9 14 16 15 14 14 11 6 6 5 7 9 10 8 8 8 8 7 7 8 7 7 7 8 7 7 7 6
9 8 8 11 11 8 10 10 11 11 12 9 11 7 6 10 12 13 12 11 7 12 12 8 8 8 8 8 7 9 8 8 8 8 7 7 7 4
8 10 11 8 11 8 7 8 6 9 4 0 5 8 7 6 6 8 12 11 11 11 12 16 12 9 8 9 8 8 8 7 8 8 6 5 5 3
10 11 9 10 8 6 5 7 3 5 4 5 2 1 -5 2 6 -2 5 16 8 8 13 15 18 12 10 9 10 10 9 9 8 8 6 4 2 3
8 7 11 8 6 7 8 9 11 8 2 6 1 7 8 5 14 2 1 10 13 6 3 11 14 20 16 11 11 10 10 9 8 6 6 5 4 4
7 9 9 4 6 4 5 2 13 -2 2 9 17 18 -9 16 3 25 -1 5 6 5 9 2 10 14 17 14 12 12 9 8 5 4 3 3 3 4
9 9 9 6 2 4 2 -1 33 26 16 12 15 20 17 20 -0 28 4 2 10 22 11 8 3 9 10 9 7 8 8 8 8 11 9 7 3 5
11 6 6 5 3 11 -0 28 8 8 18 -3 6 19 14 21 8 12 6 -2 7 13 3 4 11 8 8 10 8 7 7 8 5 5 5 6 5 6
10 6 7 9 13 23 12 8 6 3 -2 17 16 6 10 -3 27 9 4 4 1 5 12 18 14 14 8 11 10 8 5 3 9 9 4 8 8 4
12 15 16 14 12 10 25 15 14 18 25 19 3 7 4 8 9 15 7 1 11 23 13 10 3 16 9 7 12 7 16 10 7 10 9 7 17 15
6 16 12 18 6 30 12 15 20 6 27 -3 12 -2 8 7 16 13 6 21 19 18 18 20 -3 8 10 11 11 8 12 8 11 10 24 13 5 4
14 23 26 4 24 7 18 10 30 5 -9 5 4 -1 10 13 11 22 27 5 10 10 27 1 11 14 11 15 12 5 11 20 21 19 7 1 12 8
11 16 15 10 10 5 1 4 10 11 12 20 14 15 17 8 3 3 -2 2 10 22 2 11 12 13 8 11 6 3 15 13 3 10 2 14 15 13
13 10 7 15 14 13 9 10 14 7 20 17 13 8 6 8 6 16 14 14 7 5 6 12 5 9 0 -1 13 9 27 8 20 -1 5 13 13 15
11 -1 2 12 3 15 14 13 -7 -0 -0 13 11 7 6 6 6 10 10 11 10 9 11 9 13 -7 11 11 9 9 15 1 1 10 11 5 14 14
-12 -9 9 33 9 3 32 16 -6 11 8 14 10 12 9 12 11 10 13 17 1 15 8 1 1 -5 28 18 15 -4 1 14 3 1 20 20 17 12
2 9 21 -4 17 3 7 7 17 10 -1 17 3 8 8 8 10 11 9 11 12 -3 -2 -2 4 40 13 12 4 2 8 1 22 21 13 13 11 7
14 -3 10 13 -5 8 5 19 6 31 9 18 4 13 13 12 16 13 0 10 3 7 12 47 20 4 2 11 11 13 11 25 9 8 8 8 9 10
16 20 17 27 12 5 6 5 10 25 18 8 12 8 1 12 3 -1 4 13 18 -8 13 8 -2 0 -2 13 8 25 16 6 9 10 10 10 8 7
13 -17 15 2 19 13 25 14 6 9 13 21 3 15 16 17 -4 23 -4 34 34 17 5 19 -5 7 14 9 18 13 9 10 9 9 9 7 7 6
1 6 22 23 -9 31 7 15 18 1 14 25 15 15 -1 17 38 37 17 2 6 4 2 -2 10 -4 20 13 10 10 9 10 8 7 6 6 5 7
6 32 5 21 10 39 18 -0 1 17 11 8 18 4 23 28 22 -10 10 29 1 -0 0 12 20 18 13 10 10 9 8 7 5 7 7 6 9 8
Height
3153 3155 3157 3159 3161 3161 3162 3163 3164 3164 3166 3170 3170 3171 3172 3174 3175 3175 3176 3177 3177 3178 3179 3179 3181 3182 3183 3184 3184 3184 3184 3184 3184 3184 3185 3184 3184 3184
3146 3148 3150 3153 3154 3155 3155 3156 3158 3158 3158 3162 3164 3164 3166 3167 3168 3169 3170 3171 3171 3172 3172 3173 3174 3176 3177 3178 3179 3179 3180 3180 3181 3181 3181 3181 3180 3181
3139 3141 3143 3145 3146 3148 3148 3150 3151 3152 3152 3156 3157 3158 3160 3161 3161 3163 3164 3165 3165 3165 3165 3166 3167 3169 3171 3173 3173 3174 3175 3176 3177 3177 3178 3177 3177 3177
3132 3133 3136 3137 3138 3140 3142 3143 3145 3147 3147 3149 3151 3152 3153 3154 3156 3157 3157 3158 3159 3158 3159 3161 3162 3163 3164 3166 3167 3169 3170 3171 3172 3172 3173 3175 3173 3172
3123 3125 3128 3129 3131 3133 3135 3136 3138 3140 3140 3141 3144 3146 3147 3148 3149 3151 3152 3152 3152 3152 3153 3154 3155 3157 3158 3160 3161 3164 3165 3166 3168 3168 3167 3170 3170 3170
3115 3116 3119 3121 3123 3126 3127 3129 3131 3131 3132 3133 3134 3137 3140 3141 3142 3144 3145 3146 3146 3146 3147 3148 3149 3150 3153 3154 3156 3158 3160 3161 3162 3162 3162 3163 3164 3164
3106 3108 3110 3113 3115 3117 3117 3119 3121 3122 3123 3124 3125 3127 3131 3132 3134 3138 3137 3139 3139 3140 3141 3143 3144 3145 3147 3147 3149 3151 3153 3154 3155 3155 3156 3156 3157 3157
3096 3099 3102 3104 3106 3108 3108 3109 3111 3111 3113 3115 3117 3119 3122 3124 3126 3128 3130 3131 3133 3134 3134 3136 3137 3140 3142 3142 3143 3144 3146 3148 3148 3148 3148 3149 3150 3150
3087 3090 3092 3095 3096 3097 3098 3099 3100 3102 3104 3107 3107 3109 3112 3117 3120 3119 3121 3122 3125 3126 3127 3129 3131 3133 3134 3135 3137 3138 3140 3142 3142 3142 3142 3143 3143 3143
3078 3081 3082 3084 3086 3086 3087 3089 3091 3093 3096 3098 3101 3104 3105 3108 3109 3111 3112 3114 3116 3119 3120 3121 3125 3126 3128 3129 3130 3132 3133 3135 3136 3135 3135 3136 3135 3134
3070 3071 3072 3073 3077 3077 3078 3079 3081 3084 3087 3090 3093 3094 3097 3099 3101 3103 3104 3106 3107 3111 3113 3113 3118 3118 3119 3121 3124 3124 3125 3129 3129 3128 3127 3128 3126 3125
3061 3063 3064 3066 3068 3069 3069 3072 3073 3079 3080 3083 3085 3087 3090 3092 3093 3095 3097 3098 3100 3102 3105 3107 3111 3112 3114 3115 3116 3117 3118 3118 3119 3121 3120 3118 3118 3117
3051 3054 3056 3059 3060 3061 3062 3063 3067 3072 3072 3074 3077 3080 3082 3085 3087 3088 3089 3092 3093 3095 3098 3100 3103 3105 3107 3108 3110 3110 3111 3111 3112 3112 3111 3111 3110 3109
3045 3046 3049 3051 3052 3053 3055 3057 3060 3062 3063 3065 3069 3073 3076 3079 3081 3083 3084 3086 3087 3088 3091 3094 3095 3098 3100 3101 3101 3102 3102 3103 3104 3106 3106 3105 3102 3101
3036 3038 3040 3041 3043 3044 3046 3049 3052 3053 3055 3058 3063 3066 3069 3071 3073 3075 3077 3079 3081 3082 3085 3086 3088 3090 3093 3093 3094 3094 3095 3096 3098 3098 3099 3097 3096 3095
3027 3029 3032 3033 3034 3036 3038 3040 3043 3046 3049 3052 3056 3058 3060 3062 3065 3068 3070 3072 3074 3076 3078 3080 3083 3085 3084 3086 3087 3088 3089 3090 3091 3092 3091 3090 3089 3088
3017 3018 3021 3022 3025 3027 3029 3032 3035 3037 3039 3044 3048 3050 3052 3054 3057 3060 3063 3065 3067 3070 3072 3074 3076 3077 3078 3078 3080 3081 3082 3083 3083 3084 3083 3082 3082 3082
3007 3009 3012 3014 3016 3019 3022 3024 3026 3029 3032 3036 3039 3042 3044 3046 3050 3052 3055 3058 3060 3063 3065 3067 3068 3068 3070 3071 3074 3074 3075 3077 3077 3077 3076 3076 3075 3074
2996 3000 3003 3005 3008 3010 3012 3014 3016 3018 3022 3024 3028 3032 3035 3037 3041 3044 3046 3050 3053 3056 3058 3058 3060 3062 3064 3066 3068 3069 3070 3070 3070 3070 3070 3070 3069 3069
2988 2990 2992 2995 2998 3000 3003 3003 3007 3008 3011 3014 3018 3022 3026 3029 3032 3035 3038 3041 3044 3047 3049 3051 3054 3056 3059 3061 3062 3063 3062 3063 3064 3064 3065 3065 3065 3064
2979 2980 2981 2984 2986 2989 2991 2993 2996 2999 3002 3005 3009 3013 3016 3020 3023 3026 3029 3032 3035 3038 3041 3044 3048 3049 3051 3053 3054 3056 3057 3057 3058 3058 3059 3059 3059 3058
2968 2970 2971 2973 2975 2977 2980 2982 2986 2987 2991 2993 2998 3002 3006 3009 3013 3017 3021 3024 3029 3032 3036 3039 3041 3043 3043 3045 3047 3049 3050 3051 3052 3053 3054 3054 3053 3052
2957 2959 2961 2963 2965 2965 2967 2969 2973 2975 2979 2983 2986 2992 2995 3000 3005 3009 3013 3016 3022 3025 3028 3031 3032 3034 3036 3039 3041 3043 3045 3046 3047 3048 3048 3047 3046 3045